Weather History for Imperial, CA

Change the Weather History Date:

Monday, February 24, 2014

  Actual Average Record
Temperature  
Mean Temperature 63 °F -  
Max Temperature 80 °F 75 °F 92 °F (1986)
Min Temperature 46 °F 48 °F 36 °F (1955)
Degree Days  
Heating Degree Days 2    
Growing Degree Days 13 (Base 50)    
Moisture  
Dew Point 36 °F    
Average Humidity 41    
Maximum Humidity 68    
Minimum Humidity 15    
Precipitation  
Precipitation 0.00 in - - ()
Sea Level Pressure  
Sea Level Pressure 29.92 in    
Wind  
Wind Speed 2 mph (East)    
Max Wind Speed 7 mph    
Max Gust Speed -    
Visibility 10 miles    
Events      
Averages and records for this station are not official NWS values.
T = Trace of Precipitation, MM = Missing Value Source: NWS Daily Summary

Daily Weather History Graph

Daily Weather History Graph

Search for Another Location

Airport:

Trip Planner

Search our weather history database for the weather conditions in past years. The results will help you decide how hot, cold, wet, or windy it might be!

Date:

Astronomy

Feb. 24, 2014 Rise Set
Actual Time 6:15 AM PST 5:35 PM PST
Civil Twilight 5:50 AM PST 6:00 PM PST
Nautical Twilight 5:22 AM PST 6:29 PM PST
Astronomical Twilight 4:53 AM PST 6:57 PM PST
Moon 2:09 AM PST (2/24) 12:50 PM PST (2/24)
Length of Visible Light 12h 09m
Length of Day
11h 19m
Waning Crescent, 27% of the Moon is Illuminated
Feb 24
Waning Crescent
Mar 1
New
Mar 8
First Quarter
Mar 16
Full
Mar 23
Last Quarter

Hourly Weather History & Observations

Time (PST) Temp. Dew Point Humidity Pressure Visibility Wind Dir Wind Speed Gust Speed Precip Events Conditions
12:53 AM 53.1 °F 37.0 °F 55% 29.92 in 10.0 mi Calm Calm - N/A   Clear
1:53 AM 51.1 °F 37.0 °F 59% 29.91 in 10.0 mi SE 3.5 mph - N/A   Clear
2:53 AM 50.0 °F 36.0 °F 59% 29.91 in 10.0 mi North 4.6 mph - N/A   Clear
3:53 AM 48.9 °F 37.0 °F 64% 29.91 in 10.0 mi Calm Calm - N/A   Clear
4:53 AM 51.1 °F 36.0 °F 56% 29.93 in 10.0 mi Calm Calm - N/A   Clear
5:53 AM 46.0 °F 36.0 °F 68% 29.93 in 10.0 mi Calm Calm - N/A   Clear
6:53 AM 48.0 °F 36.0 °F 63% 29.95 in 10.0 mi South 3.5 mph - N/A   Unknown
7:53 AM 51.1 °F 39.9 °F 66% 29.97 in 10.0 mi Calm Calm - N/A   Unknown
8:53 AM 60.1 °F 42.1 °F 51% 29.98 in 10.0 mi Calm Calm - N/A   Clear
9:53 AM 69.1 °F 37.0 °F 31% 29.98 in 10.0 mi Calm Calm - N/A   Clear
10:53 AM 73.0 °F 41.0 °F 31% 29.97 in 10.0 mi North 4.6 mph - N/A   Clear
11:53 AM 75.9 °F 39.9 °F 27% 29.94 in 10.0 mi NE 4.6 mph - N/A   Clear
12:53 PM 78.1 °F 36.0 °F 22% 29.92 in 10.0 mi Variable 4.6 mph - N/A   Clear
1:53 PM 79.0 °F 35.1 °F 20% 29.89 in 10.0 mi ENE 4.6 mph - N/A   Clear
2:53 PM 80.1 °F 32.0 °F 17% 29.88 in 10.0 mi NE 3.5 mph - N/A   Clear
3:53 PM 79.0 °F 30.9 °F 17% 29.87 in 10.0 mi East 6.9 mph - N/A   Clear
4:53 PM 79.0 °F 28.0 °F 15% 29.87 in 10.0 mi SE 3.5 mph - N/A   Clear
5:53 PM 70.0 °F 36.0 °F 29% 29.88 in 10.0 mi SW 4.6 mph - N/A   Clear
6:53 PM 69.1 °F 35.1 °F 29% 29.89 in 10.0 mi Calm Calm - N/A   Clear
7:53 PM 66.0 °F 35.1 °F 32% 29.90 in 10.0 mi Calm Calm - N/A   Clear
8:53 PM 64.9 °F 34.0 °F 32% 29.91 in 10.0 mi Calm Calm - N/A   Clear
9:33 PM 63.0 °F 37.0 °F 38% 29.91 in 10.0 mi Calm Calm - N/A   Partly Cloudy
9:53 PM 61.0 °F 39.0 °F 44% 29.91 in 10.0 mi Calm Calm - N/A   Clear
10:53 PM 60.1 °F 37.9 °F 44% 29.91 in 10.0 mi Calm Calm - N/A   Clear
11:53 PM 53.1 °F 39.0 °F 59% 29.91 in 10.0 mi Calm Calm - N/A   Clear